Location: Anglesey
(53.1800°N, 4.2200°W)
Time: 14:53:49
(UTC+01:00)

Envisat - Pass Details

Date: 13 October 2017
Orbit: 764 x 766 km, 98.2° (Epoch: 21 October)

Event Time Altitude Azimuth Distance (km) Brightness Sun altitude
Exits shadow 20:56:20 33° 173° (S) 1,266 3.9 -23.2°
Maximum altitude 20:58:40 79° 256° (WSW) 786 3.0 -23.5°
Drops below altitude 10° 21:03:47 10° 343° (NNW) 2,315 5.9 -24.3°
Sets 21:06:06 0° 345° (NNW) 3,246 6.7 -24.6°
